Miami International Airport
KMIA : now visible

Airfield :











YOU CAN JOIN US ON...

 
LOGIN :

Register | Disclaimer

   EN    FR    IT 

 









Legend :    VFR   Marginal VFR   IFR   Intensive IFR   Very Intensive IFR
Visi :
Ceiling :
>= 8 km
>= 3000ft
5 to 8 km
1000 to 3000 ft
1500m to 5 km
500 to 1000 ft
800 to 1500m
200 to 500 ft
< 800m
< 200 ft
Symbols :   Thunderstorms  Fog  Heavy snow  Heavy precipitations  Wind > 20 kt







- Airport Elevation : 8 ft
- IATA code : MIA


KMIA - Miami International

CURRENT METAR :
  • 261553Z 09015KT 10SM BKN029 31/20 A3012 RMK AO2 SLP201 T03060200

EXPIRED METARs :
  • 261453Z 12017KT 10SM BKN029 29/19 A3013 RMK AO2 SLP202 T02940194 51006
  • 261353Z 09014KT 10SM BKN027 BKN035 28/21 A3013 RMK AO2 SLP201 T02830211

TAF KMIA
Valid from the 26 at 15:00 until the 27 at 18:00 UTC


261455Z 2615/2718 10015G22KT P6SM SCT030
FM270400 09011KT P6SM SCT025
FM271300 10015KT P6SM SCT030
KZMA FIR / North America



MET'MAP, your aeronautical weather chart ! - Copyright ORBIFLY December 2007 - Disclaimer

ORBIFLY MET'MAP TEAM :

Programming & Development : Alexandra Zaïnal
Concept & Development : Baudouin d'Aumeries
Co-Development & Prog : Marc-Olivier Méhu
Technical & hardware support : Manuel Goepfert

Contact : metmap@orbifly.com




SOURCES & CREDITS :

   NOAA       Earth
Advisory